Miscellaneous Local Product
Issued by NWS North Platte, NE

Home | Current Version | Previous Version | Text Only | Print | Product List | Glossary On
Versions: 1 2 3 4 5 6 7 8 9 10 11 12 13 14 15 16 17 18 19 20 21 22 23 24 25 26 27 28 29 30 31 32 33 34 35 36 37 38 39 40 41 42 43 44 45 46 47 48 49 50
000
AXUS43 KLBF 041510
MISLBF


WESTERN AND NORTH CENTRAL NEBRASKA HOURLY WEATHER ROUNDUP
NATIONAL WEATHER SERVICE NORTH PLATTE NE
1000 AM CDT FRI SEP 04 2015

NOTE: "FAIR" INDICATES FEW OR NO CLOUDS BELOW 12,000 FEET WITH NO
SIGNIFICANT WEATHER AND/OR OBSTRUCTIONS TO VISIBILITY.

NOTE: STATIONS NOT REPORTING VARIABLES SUCH AS SKY/WEATHER OR
PRESSURE ARE PROVIDED BY THE NEBRASKA DEPARTMENT OF
ROADS...RAWS...AND APRS NETWORKS...AND ARE NOT UNDER
NATIONAL WEATHER SERVICE QUALITY CONTROL.

...OBSERVATIONS IN AND NEAR THE EASTERN PANHANDLE OF NEBRASKA...

CITY           SKY/WX    TMP DP  RH WIND       PRES   REMARKS
PINE RIDGE     SUNNY     75  59  57 SW5       29.85S
CHADRON        SUNNY     74  52  46 W8        29.85S
ALLIANCE       SUNNY     71  55  56 VRB3      29.90S
SIDNEY         SUNNY     73  48  41 NW8       29.95R
CRESCENT LAKE    N/A     75  56  52 SW6         N/A
BIG SPRINGS      N/A     68  59  74 W3          N/A
$$

...OBSERVATIONS IN NORTH CENTRAL NEBRASKA...

CITY           SKY/WX    TMP DP  RH WIND       PRES   REMARKS
VALENTINE      SUNNY     75  64  68 SW6       29.82S
THEDFORD       SUNNY     77  64  64 S3        29.85S
AINSWORTH      MOSUNNY   75  66  74 S13       29.81F
O`NEILL        PTSUNNY   78  67  69 S14       29.86R
ORD            PTSUNNY   77  64  64 S12G20    29.84S
BROKEN BOW     PTSUNNY   76  62  62 S14       29.85S
SPRINGVIEW       N/A     76  66  71 SE7         N/A
SARGENT          N/A     74  64  71 CALM        N/A
CHAMBERS         N/A     77  66  68 S8          N/A
EWING            N/A     76  66  71 S6          N/A
$$

...OBSERVATIONS IN SOUTHWEST NEBRASKA AND FAR NORTHEAST COLORADO...

CITY           SKY/WX    TMP DP  RH WIND       PRES   REMARKS
WRAY           CLOUDY    72  56  56 W7        29.93S
HOLYOKE        FAIR      73  54  49 W6        29.92S
IMPERIAL       SUNNY     73  58  59 NW6       29.89R
OGALLALA       SUNNY     68  61  77 W6        29.89S
NORTH PLATTE   SUNNY     73  62  68 SE3       29.85R
MCCOOK         MOSUNNY   76  62  62 W8        29.84R
LEXINGTON      MOSUNNY   76  62  62 SE9       29.84F
PAXTON           N/A     68  64  88 CALM        N/A
BRADY            N/A     71  63  76 CALM        N/A
CALLAWAY         N/A     74  68  81 S9          N/A
$$

...OBSERVATIONS IN CENTRAL LINCOLN COUNTY AREA...

CITY           SKY/WX    TMP DP  RH WIND       PRES   REMARKS
N.P. AIRPORT   SUNNY     73  62  68 SE3       29.85R
N.P. DOWNTOWN    N/A     73  65  75 CALM        N/A
N.P. SOUTHEAST   N/A     73  63  72 CALM        N/A
N.P. HILLCREST   N/A     73  65  76 CALM        N/A
$$

...SOME OBSERVATIONS FROM AROUND THE REGION...

CITY           SKY/WX    TMP DP  RH WIND       PRES   REMARKS
DENVER         MOSUNNY   65  50  58 SW7       30.03R
LARAMIE        MOSUNNY   62  46  55 VRB5      30.14R
CHEYENNE       SUNNY     72  45  37 SW8       30.06R
SCOTTSBLUFF    SUNNY     68  54  60 CALM      29.92S
RAPID CITY     MOSUNNY   72  55  55 SE3       29.82R
PIERRE         MOSUNNY   76  66  71 SE8       29.76R
WINNER         FAIR      79  64  60 S9        29.79R
SIOUX FALLS    PTSUNNY   78  69  73 S13       29.87R
OMAHA          CLOUDY    78  69  73 S15       29.93S
GRAND ISLAND   PTSUNNY   77  65  66 S18       29.87S
KANSAS CITY    MOSUNNY   82  70  66 S10       29.99S
WICHITA        MOSUNNY   82  66  58 S16       29.96S
HAYS           SUNNY     82  61  47 S21G30    29.87R
LIBERAL        SUNNY     81  59  47 S13       29.95R
GOODLAND       SUNNY     77  53  43 NW12      29.93R
$$



USA.gov is the U.S. government's official web portal to all federal, state and local government web resources and services.